TimePDT,TemperatureF,Dew PointF,Humidity,Sea Level PressureIn,VisibilityMPH,Wind Direction,Wind SpeedMPH,Gust SpeedMPH,PrecipitationIn,Events,Conditions,WindDirDegrees,DateUTC
12:04 AM,66.2,57.2,73,29.94,10.0,WSW,3.5,-,N/A,,Scattered Clouds,250,2013-06-25 07:04:00
12:13 AM,66.2,57.2,73,29.94,10.0,WSW,3.5,-,N/A,,Mostly Cloudy,250,2013-06-25 07:13:00
12:15 AM,66.2,57.2,73,29.94,10.0,West,4.6,-,N/A,,Scattered Clouds,260,2013-06-25 07:15:00
12:22 AM,66.2,57.2,73,29.94,10.0,West,4.6,-,N/A,,Mostly Cloudy,260,2013-06-25 07:22:00
12:55 AM,66.0,59.0,78,29.96,10.0,Calm,Calm,-,N/A,,Overcast,0,2013-06-25 07:55:00
1:02 AM,66.2,59.0,78,29.93,10.0,Calm,Calm,-,N/A,,Overcast,0,2013-06-25 08:02:00
1:55 AM,64.9,59.0,81,29.96,8.0,Calm,Calm,-,N/A,,Overcast,0,2013-06-25 08:55:00
2:55 AM,66.0,57.9,75,29.97,9.0,Calm,Calm,-,N/A,,Overcast,0,2013-06-25 09:55:00
3:55 AM,66.9,57.9,73,29.97,10.0,Calm,Calm,-,N/A,,Overcast,0,2013-06-25 10:55:00
4:03 AM,66.2,57.2,73,29.94,10.0,Calm,Calm,-,N/A,,Overcast,0,2013-06-25 11:03:00
4:55 AM,66.0,57.9,75,29.98,10.0,Calm,Calm,-,N/A,,Overcast,0,2013-06-25 11:55:00
5:09 AM,66.2,57.2,73,29.95,10.0,Calm,Calm,-,N/A,,Overcast,0,2013-06-25 12:09:00
5:55 AM,66.9,57.9,73,29.98,10.0,Calm,Calm,-,N/A,,Overcast,0,2013-06-25 12:55:00
6:55 AM,68.0,57.9,70,29.99,10.0,Variable,3.5,-,N/A,,Mostly Cloudy,0,2013-06-25 13:55:00
7:18 AM,69.8,57.2,64,29.96,10.0,NNE,3.5,-,N/A,,Scattered Clouds,30,2013-06-25 14:18:00
7:55 AM,70.0,57.9,65,30.00,10.0,Calm,Calm,-,N/A,,Clear,0,2013-06-25 14:55:00
8:55 AM,71.1,57.9,63,30.01,9.0,SW,4.6,-,N/A,,Scattered Clouds,220,2013-06-25 15:55:00
9:55 AM,73.9,59.0,59,30.01,10.0,West,8.1,-,N/A,,Partly Cloudy,260,2013-06-25 16:55:00
10:55 AM,73.0,59.0,61,30.02,10.0,SW,9.2,-,N/A,,Scattered Clouds,220,2013-06-25 17:55:00
11:55 AM,73.9,59.0,59,30.02,10.0,SW,11.5,-,N/A,,Scattered Clouds,230,2013-06-25 18:55:00
12:41 PM,73.4,59.0,61,30.00,10.0,SSW,11.5,19.6,N/A,,Mostly Cloudy,210,2013-06-25 19:41:00
12:55 PM,73.0,59.0,61,30.03,10.0,WSW,11.5,18.4,N/A,,Mostly Cloudy,240,2013-06-25 19:55:00
1:55 PM,73.9,59.0,59,30.02,10.0,SW,12.7,17.3,N/A,,Mostly Cloudy,230,2013-06-25 20:55:00
2:55 PM,73.9,59.0,59,30.01,10.0,West,9.2,-,N/A,,Mostly Cloudy,260,2013-06-25 21:55:00
3:00 PM,73.4,59.0,61,29.98,10.0,SW,8.1,-,N/A,,Scattered Clouds,230,2013-06-25 22:00:00
3:55 PM,73.0,59.0,61,29.98,10.0,WSW,8.1,-,N/A,,Clear,250,2013-06-25 22:55:00
4:55 PM,73.0,59.0,61,29.96,10.0,Variable,4.6,-,N/A,,Clear,0,2013-06-25 23:55:00
5:55 PM,73.9,57.9,57,29.94,10.0,WSW,10.4,-,N/A,,Clear,240,2013-06-26 00:55:00
6:55 PM,71.1,57.9,63,29.94,10.0,SW,5.8,-,N/A,,Clear,230,2013-06-26 01:55:00
7:55 PM,69.1,57.9,68,29.94,10.0,SW,4.6,-,N/A,,Clear,230,2013-06-26 02:55:00
8:55 PM,68.0,57.9,70,29.94,10.0,Calm,Calm,-,N/A,,Clear,0,2013-06-26 03:55:00
9:55 PM,66.9,57.9,73,29.94,10.0,Calm,Calm,-,N/A,,Clear,0,2013-06-26 04:55:00
10:55 PM,66.9,57.9,73,29.94,10.0,Calm,Calm,-,N/A,,Clear,0,2013-06-26 05:55:00
11:55 PM,66.9,57.9,73,29.94,10.0,Calm,Calm,-,N/A,,Clear,0,2013-06-26 06:55:00